GW0906 Weather Reports


time (UTC)temp
F
wind
direction
speed
knots
gust
knots
rain 1hr
in
rain 24hr
in
rain mn
in
humidity
%
barometer
mb
20260506134552 67 236 1.7 6.1 0.00 0.00 0.00 72 1008.1
20260506133106 68 123 0.9 4.3 0.00 0.00 0.00 71 1007.9
20260506131603 67 271 1.7 4.3 0.00 0.00 0.00 72 1007.6
20260506130058 67 193 1.7 5.2 0.00 0.00 0.00 74 1007.6
20260506124556 67 200 0.9 4.3 0.00 0.00 0.00 74 1007.7
20260506123056 66 186 0.9 2.6 0.00 0.00 0.00 75 1007.8
20260506121556 66 205 0.9 2.6 0.00 0.00 0.00 75 1007.8
20260506120100 66 225 0.9 4.3 0.00 0.00 0.00 76 1007.9
20260506114548 65 0 0.9 3.5 0.00 0.00 0.00 75 1008.0
20260506113051 65 0 0.0 2.6 0.00 0.00 0.00 75 1007.6
20260506111552 65 0 0.9 2.6 0.00 0.00 0.00 75 1007.7
20260506110101 64 113 0.0 2.6 0.00 0.00 0.00 74 1007.7
20260506104603 64 217 0.0 1.7 0.00 0.00 0.00 74 1007.6
20260506103049 64 0 0.0 2.6 0.00 0.00 0.00 74 1007.7
20260506101553 64 166 0.0 3.5 0.00 0.00 0.00 73 1007.4
20260506100058 63 184 0.0 1.7 0.00 0.00 0.00 73 1007.4
20260506094556 63 164 0.9 3.5 0.00 0.00 0.00 72 1007.4
20260506093047 63 173 0.9 1.7 0.00 0.00 0.00 73 1007.6
20260506091551 62 147 0.0 3.5 0.00 0.00 0.00 74 1007.4
20260506090051 63 178 0.9 1.7 0.00 0.00 0.00 73 1007.4
20260506084616 64 178 0.0 1.7 0.00 0.00 0.00 70 1007.6
20260506083056 66 0 0.0 0.9 0.00 0.00 0.00 68 1007.7
20260506081558 67 175 0.0 2.6 0.00 0.00 0.00 65 1007.7
20260506073052 67 188 0.9 2.6 0.00 0.00 0.00 65 1007.8
20260506071559 67 186 0.9 2.6 0.00 0.00 0.00 64 1007.7
20260506061557 67 232 0.0 3.5 0.00 0.00 0.00 64 1008.2
20260506044550 66 194 0.0 1.7 0.00 0.00 0.00 67 1008.4
20260506043050 66 0 0.0 0.0 0.00 0.00 0.00 67 1008.5
20260506041602 66 0 0.0 0.0 0.00 0.00 0.00 67 1008.4
20260506040050 66 0 0.0 0.0 0.00 0.00 0.00 67 1008.2
20260506034554 67 0 0.0 0.0 0.00 0.00 0.00 66 1008.3
20260506033049 67 0 0.0 0.9 0.00 0.00 0.00 65 1008.1
20260506031555 68 0 0.0 0.9 0.00 0.00 0.00 63 1008.2
20260506030049 68 0 0.0 1.7 0.00 0.00 0.00 61 1008.2
20260506024556 69 0 0.0 0.0 0.00 0.00 0.00 61 1008.2
20260506023109 70 0 0.0 0.0 0.00 0.00 0.00 59 1008.1
20260506021611 71 0 0.0 1.7 0.00 0.00 0.00 57 1007.9
20260506020057 71 0 0.0 1.7 0.00 0.00 0.00 53 1007.9
20260506014557 71 0 0.0 0.9 0.00 0.00 0.00 52 1007.8
20260506013108 72 0 0.0 1.7 0.00 0.00 0.00 51 1007.5
20260506011615 74 0 0.0 1.7 0.00 0.00 0.00 49 1007.3
20260506010057 75 0 0.0 2.6 0.00 0.00 0.00 45 1007.2
20260506004554 76 294 0.0 2.6 0.00 0.00 0.00 43 1007.1
20260506003056 76 213 0.9 5.2 0.00 0.00 0.00 42 1007.0
20260506001556 77 177 0.9 5.2 0.00 0.00 0.00 41 1006.9
20260506000053 77 223 1.7 6.1 0.00 0.00 0.00 40 1006.8
20260505234551 77 0 1.7 6.1 0.00 0.00 0.00 40 1006.7
20260505233051 78 209 0.9 4.3 0.00 0.00 0.00 40 1006.5
20260505231604 78 225 0.9 3.5 0.00 0.00 0.00 39 1006.2
20260505230051 79 179 2.6 7.0 0.00 0.00 0.00 38 1006.3
20260505224552 79 207 2.6 8.7 0.00 0.00 0.00 37 1006.0
20260505223057 80 0 0.9 5.2 0.00 0.00 0.00 37 1005.7
20260505221551 80 194 2.6 11.3 0.00 0.00 0.00 36 1005.6
20260505220059 80 212 1.7 6.1 0.00 0.00 0.00 35 1005.6
20260505214556 81 200 0.9 7.0 0.00 0.00 0.00 35 1005.4
20260505213049 81 207 1.7 7.0 0.00 0.00 0.00 36 1005.1
20260505211552 82 0 2.6 7.0 0.00 0.00 0.00 36 1005.1
20260505210051 83 187 3.5 8.7 0.00 0.00 0.00 34 1005.2
20260505204551 83 213 2.6 8.7 0.00 0.00 0.00 34 1004.9
20260505203107 83 241 3.5 13.0 0.00 0.00 0.00 36 1004.8
20260505201600 83 289 3.5 11.3 0.00 0.00 0.00 33 1005.0
20260505200054 83 228 2.6 10.4 0.00 0.00 0.00 35 1005.3
20260505194551 84 144 5.2 15.6 0.00 0.00 0.00 35 1005.4
20260505193048 84 181 1.7 8.7 0.00 0.00 0.00 36 1005.6
20260505191601 84 201 3.5 12.2 0.00 0.00 0.00 36 1005.7
20260505190050 84 253 3.5 12.2 0.00 0.00 0.00 35 1005.8
20260505184553 84 23 5.2 11.3 0.00 0.00 0.00 38 1005.9
20260505183054 84 192 1.7 9.6 0.00 0.00 0.00 38 1006.1
20260505181550 84 211 2.6 14.8 0.00 0.00 0.00 41 1006.4
20260505180100 85 185 1.7 9.6 0.00 0.00 0.00 39 1006.5
20260505174555 85 241 1.7 7.8 0.00 0.00 0.00 42 1006.6
20260505173059 84 236 1.7 14.8 0.00 0.00 0.00 41 1006.9
20260505171554 83 202 2.6 8.7 0.00 0.00 0.00 43 1006.9
20260505170110 82 271 2.6 7.8 0.00 0.00 0.00 43 1007.2
20260505164557 82 173 1.7 8.7 0.00 0.00 0.00 45 1007.5
20260505163102 82 158 1.7 6.1 0.00 0.00 0.00 46 1007.7
20260505161616 81 190 0.9 6.1 0.00 0.00 0.00 46 1007.8
20260505153106 79 250 1.7 7.0 0.00 0.00 0.00 50 1008.4
20260505151604 78 212 1.7 5.2 0.00 0.00 0.00 52 1008.4